User: anonymous   Login
Location: Unspecified
(0.0000°N, 0.0000°E)
Time: 13:00:20
(UTC+00:00)
Language:

A-11 Canister half - Orbit

View from above orbital plane
View from above orbital plane
View from above satellite
View from above satellite

Ground track
Ground track

The orbit data is extracted from the following two-line orbital elements,

1 00053U 60009E   16041.38584241 -.00000086  00000-0  00000+0 0  9994
2 00053  47.2757 119.1247 0097174  66.6343 294.4633 12.17181883475011
Epoch (UTC): 10 February 2016 09:15:36
Eccentricity: 0.0097174
inclination: 47.2757°
perigee height: 1527 km
apogee height: 1682 km
right ascension of ascending node: 119.1247°
argument of perigee: 66.6343°
revolutions per day: 12.17181883
mean anomaly at epoch: 294.4633°
orbit number at epoch: 47501

The dashed part of the orbit path shows where the satellite is in the earth's shadow,  

DLR